KC5EZZ-6 Weather Reports


Display with metric or nautical units.
time (UTC)temp
F
wind
direction
speed
MPH
gust
MPH
rain 1hr
in
rain 24hr
in
rain mn
in
humidity
%
barometer
mb
20260901094701 77 72 0.0 0.0 0.00 0.00 0.00
20260901094201 77 72 0.0 0.0 0.00 0.00 0.00
20260901093701 77 72 0.0 0.0 0.00 0.00 0.00
20260901073612 78 72 0.0 0.0 0.00 0.00 0.00
20260901032424 83 72 0.0 0.0 0.00 0.00 0.00
20260901031922 83 72 0.0 0.0 0.00 0.00 0.00
20260901031418 83 72 0.0 0.0 0.00 0.00 0.00
20260901030917 83 72 0.0 0.0 0.00 0.00 0.00
20260901030416 83 72 0.0 0.0 0.00 0.00 0.00
20260901022856 85 72 0.0 0.0 0.00 0.00 0.00
20260901021854 86 72 0.0 0.0 0.00 0.00 0.00
20260901021349 86 72 0.0 0.0 0.00 0.00 0.00
20260901020847 86 72 0.0 0.0 0.00 0.00 0.00
20260901020347 86 72 0.0 0.0 0.00 0.00 0.00
20260901015842 86 72 0.0 0.0 0.00 0.00 0.00
20260901015341 87 72 0.0 0.0 0.00 0.00 0.00
20260901014841 87 72 0.0 0.0 0.00 0.00 0.00
20260901014335 87 72 0.0 0.0 0.00 0.00 0.00
20260901013834 88 72 0.0 0.0 0.00 0.00 0.00
20260901012830 88 72 0.0 0.0 0.00 0.00 0.00
20260901012327 89 72 0.0 0.0 0.00 0.00 0.00
20260901011828 89 72 0.0 0.0 0.00 0.00 0.00
20260901011321 89 72 0.0 0.0 0.00 0.00 0.00
20260901010821 90 72 0.0 0.0 0.00 0.00 0.00
20260901005812 90 72 0.0 0.0 0.00 0.00 0.00
20260901005311 91 72 0.0 0.0 0.00 0.00 0.00
20260901004812 91 72 0.0 0.0 0.00 0.00 0.00
20260901004306 92 72 0.0 0.0 0.00 0.00 0.00
20260901003303 92 72 0.0 0.0 0.00 0.00 0.00
20260901002758 93 72 0.0 0.0 0.00 0.00 0.00
20260901002257 93 72 0.0 0.0 0.00 0.00 0.00
20260831234742 96 165 0.0 0.0 0.00 0.00 0.00
20260831234237 96 165 0.0 0.0 0.00 0.00 0.00
20260831233736 96 165 0.0 0.0 0.00 0.00 0.00
20260831232730 97 181 0.0 0.0 0.00 0.00 0.00
20260831232229 97 181 0.0 0.0 0.00 0.00 0.00
20260831231729 98 181 0.0 0.0 0.00 0.00 0.00
20260831231223 98 181 0.0 0.0 0.00 0.00 0.00
20260831230722 99 181 0.0 0.0 0.00 0.00 0.00
20260831230221 99 181 0.0 0.0 0.00 0.00 0.00
20260831225716 99 181 0.0 0.0 0.00 0.00 0.00
20260831225215 99 181 0.0 0.0 0.00 0.00 0.00
20260831223706 98 181 0.0 0.0 0.00 0.00 0.00
20260831223205 101 181 0.0 0.0 0.00 0.00 0.00
20260831222159 101 181 0.0 0.0 0.00 0.00 0.00
20260831221659 102 181 0.0 0.0 0.00 0.00 0.00
20260831221152 102 197 0.0 0.0 0.00 0.00 0.00
20260831220651 101 197 0.0 0.0 0.00 0.00 0.00
20260831220150 100 197 0.0 0.0 0.00 0.00 0.00
20260831215645 100 70 0.0 0.0 0.00 0.00 0.00
20260831214643 102 70 0.0 0.0 0.00 0.00 0.00
20260831214138 102 70 0.0 0.0 0.00 0.00 0.00
20260831212131 104 252 0.0 3.0 0.00 0.00 0.00
20260831204615 106 143 0.0 2.0 0.00 0.00 0.00
20260831204108 105 143 0.0 0.0 0.00 0.00 0.00
20260831203607 102 143 0.0 0.0 0.00 0.00 0.00
20260831203107 101 108 0.0 0.0 0.00 0.00 0.00
20260831202100 105 186 1.0 0.0 0.00 0.00 0.00
20260831201600 104 80 0.0 0.0 0.00 0.00 0.00
20260831200553 99 172 0.0 0.0 0.00 0.00 0.00
20260831193037 101 211 0.0 0.0 0.00 0.00 0.00
20260831192537 105 211 0.0 0.0 0.00 0.00 0.00
20260831191537 102 211 0.0 0.0 0.00 0.00 0.00
20260831191023 99 167 0.0 0.0 0.00 0.00 0.00
20260831190522 103 167 0.0 0.0 0.00 0.00 0.00
20260831190021 102 167 0.0 0.0 0.00 0.00 0.00
20260831185015 101 167 0.0 0.0 0.00 0.00 0.00
20260831184006 97 167 0.0 0.0 0.00 0.00 0.00
20260831182500 105 156 0.0 0.0 0.00 0.00 0.00
20260831180951 105 128 1.0 0.0 0.00 0.00 0.00
20260831135323 86 124 0.0 0.0 0.00 0.00 0.00
20260831134852 86 124 0.0 0.0 0.00 0.00 0.00
20260831134755 86 124 0.0 0.0 0.00 0.00 0.00
20260831114656 72 124 0.0 0.0 0.00 0.00 0.00
20260831113146 73 124 0.0 0.0 0.00 0.00 0.00
20260831112148 73 124 0.0 0.0 0.00 0.00 0.00
20260831104117 74 124 0.0 0.0 0.00 0.00 0.00
20260831103112 74 124 0.0 0.0 0.00 0.00 0.00
20260831100051 74 124 0.0 0.0 0.00 0.00 0.00